GEFSSGP_500_meanwind_174.txt.gz
Wind_Speed
7 7 7 6 7 7 7 7 7 7 7 8 8 8 8 8 8 7 6 6 5 4 4 4 4 4 4 3 3 3 4 4 5 5 5 5 6 5 5 5 5 5 4 3 3 2 1 1 1
9 9 8 8 7 7 7 7 8 8 8 9 9 8 8 7 7 7 7 6 5 5 4 4 4 4 4 3 3 3 4 4 4 5 5 5 5 5 5 5 5 4 4 4 3 2 2 2 2
11 10 9 9 8 8 8 8 8 8 8 9 9 9 8 8 7 7 6 6 6 5 4 4 4 3 3 3 3 3 3 4 4 5 5 6 6 5 5 5 5 5 4 4 4 3 3 3 3
13 12 11 10 10 9 9 9 8 8 9 9 9 9 8 8 7 7 7 6 6 5 5 4 3 3 2 2 2 2 3 4 4 5 6 6 6 6 5 6 6 6 5 5 4 4 3 3 4
14 13 12 12 11 10 10 10 9 8 8 9 9 9 8 8 8 8 7 7 6 5 5 4 3 2 2 1 1 2 3 4 4 5 6 6 6 6 6 6 6 6 6 6 5 4 4 4 4
15 14 14 13 13 11 10 10 9 9 9 9 9 9 8 8 8 9 8 7 6 5 4 4 3 2 1 1 2 2 3 4 5 5 6 7 7 7 7 7 7 7 6 6 6 5 5 4 4
16 15 15 14 13 12 11 11 11 11 10 9 9 10 10 10 9 9 8 7 6 5 4 4 4 3 2 2 2 2 3 4 5 5 6 7 8 8 8 8 8 7 7 6 6 5 5 4 4
16 16 15 14 14 13 12 12 11 11 11 10 10 10 11 11 10 9 8 7 6 6 5 4 4 3 2 2 2 3 3 3 4 5 6 7 8 9 8 8 8 8 7 7 6 6 5 4 4
17 16 16 15 14 14 13 12 11 11 11 11 12 11 11 11 10 9 8 7 7 6 5 4 3 3 2 2 1 2 3 3 4 5 6 7 8 8 8 8 8 8 8 7 6 6 5 4 3
18 17 17 16 14 14 13 12 11 11 11 11 11 11 10 11 10 9 9 8 7 6 6 5 4 3 2 2 1 2 2 3 4 5 6 7 8 8 8 9 9 8 8 8 7 6 5 4 3
19 18 17 16 15 15 14 13 12 12 11 11 11 11 11 11 10 9 9 8 7 6 5 5 4 3 2 1 1 1 2 3 4 5 6 6 7 8 8 9 9 8 9 8 7 6 5 4 3
19 18 18 17 16 15 15 14 13 12 12 12 12 12 11 11 10 10 9 8 8 6 5 5 4 3 3 1 0 1 2 3 4 5 5 6 7 8 8 9 8 8 9 8 7 6 5 4 3
19 18 18 17 16 16 15 15 13 12 12 12 12 13 12 12 11 10 10 9 8 7 5 5 5 4 3 2 1 2 2 3 4 4 5 6 7 7 8 8 8 8 8 8 7 6 5 5 4
18 18 18 18 18 17 16 15 14 14 13 12 12 13 13 12 11 10 9 8 8 7 6 5 5 4 3 2 1 1 1 2 3 4 4 5 6 7 8 8 8 8 8 8 8 7 6 5 4
18 18 18 19 19 18 17 16 16 14 14 13 13 13 13 12 11 11 9 9 8 8 7 6 5 5 3 2 1 1 1 2 2 3 4 5 7 8 8 8 8 8 9 8 8 7 7 6 6
18 19 19 18 18 18 18 17 17 15 15 14 14 13 13 13 12 11 10 9 8 8 7 6 5 4 3 2 2 1 1 1 2 3 4 5 7 8 8 8 8 8 8 8 8 7 7 7 6
18 18 18 18 18 18 18 17 17 16 16 16 16 14 13 14 13 12 11 9 8 8 7 6 5 4 3 3 3 2 2 2 2 3 4 5 7 7 8 7 8 8 8 8 8 7 7 7 6
16 16 17 18 18 18 18 17 16 16 16 16 16 15 13 13 13 12 11 10 9 8 7 6 5 5 4 3 3 3 3 3 3 3 4 5 6 7 7 7 7 8 8 8 8 8 7 7 7
16 16 16 16 17 17 17 17 16 16 16 16 16 15 14 14 12 12 11 11 10 9 8 7 6 5 4 4 4 4 3 3 3 3 4 5 6 6 7 7 7 7 7 8 8 8 8 8 8
15 16 15 16 15 16 16 16 16 16 16 16 16 15 14 14 12 12 12 11 10 9 8 7 7 6 6 5 4 4 3 3 3 4 4 5 5 6 6 6 6 7 7 7 7 7 7 8 8
15 15 15 15 14 14 15 15 15 16 16 15 15 15 14 14 13 12 12 11 10 10 9 8 8 8 7 5 5 4 4 4 4 4 4 5 5 5 6 6 6 6 6 7 7 7 7 8 8
14 14 15 14 14 14 14 13 14 14 14 13 13 13 14 14 13 13 12 11 10 10 10 9 9 8 8 7 6 5 5 4 5 5 5 5 5 6 6 6 6 6 6 6 7 7 8 8 8
12 13 15 14 14 14 14 13 13 13 12 12 12 13 14 14 13 13 12 11 10 10 11 10 10 9 8 8 7 6 5 5 5 6 6 6 6 6 6 6 7 7 7 7 7 8 9 9 9
12 12 13 13 12 12 13 12 12 12 12 12 13 13 13 14 13 13 12 12 11 11 11 11 10 9 9 8 8 7 7 7 7 6 7 7 7 7 7 7 7 8 8 8 9 9 9 10 9
10 12 12 12 12 12 12 12 11 12 12 12 13 14 14 14 14 13 12 12 12 12 12 11 11 10 9 9 9 9 9 8 8 8 8 8 8 7 8 8 8 8 8 9 9 10 10 10 10
10 11 11 12 11 11 11 11 11 11 11 12 12 13 14 15 15 14 13 12 12 13 12 12 12 12 11 10 10 10 10 10 10 10 10 9 9 9 9 9 9 9 9 9 9 10 10 11 11
10 10 10 10 9 9 10 10 11 11 11 11 12 13 13 14 14 14 14 13 12 13 13 13 13 12 12 12 12 12 12 12 12 11 11 11 10 10 10 10 9 9 10 10 10 11 11 12 12
9 9 10 10 8 9 9 10 10 11 11 11 11 12 12 13 13 14 14 13 13 13 13 14 14 13 13 13 13 13 13 13 13 12 12 12 12 12 11 11 11 11 11 11 11 12 12 13 13
8 8 8 8 8 9 8 9 10 10 10 10 10 11 11 12 12 13 13 13 13 13 13 14 14 14 14 14 14 14 14 14 14 14 14 13 13 13 13 13 12 12 12 12 12 13 13 14 14
7 7 7 7 7 8 9 9 10 10 10 10 11 11 11 11 12 12 12 13 13 13 13 13 14 15 15 15 15 14 14 15 15 15 15 14 14 14 14 14 14 14 14 14 14 14 14 15 15

GEFSSGP_500_meanwind_180.txt.gz
Wind_Speed
7 7 7 7 7 6 6 6 6 6 7 7 7 7 6 6 5 4 4 4 4 3 2 2 3 3 3 2 3 4 4 5 6 6 6 6 5 5 5 5 5 5 4 4 3 2 2 2 2
8 8 8 8 8 8 7 7 7 6 7 7 7 7 7 6 6 5 5 4 4 3 3 2 2 2 2 2 3 4 5 5 6 6 7 6 6 6 6 6 6 5 5 5 4 3 3 3 3
10 10 9 9 9 9 8 8 7 6 6 7 7 7 7 7 6 6 5 5 4 4 3 2 1 1 1 2 3 4 5 5 6 7 7 7 7 6 6 7 7 6 6 5 5 5 4 4 4
12 11 11 11 10 10 9 8 7 7 7 8 8 8 7 7 7 6 5 5 5 4 3 2 1 0 1 2 3 4 4 5 6 6 7 7 7 7 7 7 7 7 6 6 5 5 5 4 4
14 13 12 11 11 11 9 8 8 8 7 8 8 8 8 7 7 6 6 5 5 4 3 2 0 0 1 2 3 4 4 5 6 6 7 7 7 7 7 7 8 7 7 7 6 5 4 4 5
14 14 13 12 12 11 10 9 9 9 8 8 8 8 8 7 7 6 7 6 6 5 4 2 1 1 1 2 3 4 4 5 6 6 7 8 8 8 8 8 8 8 8 7 6 5 5 5 5
15 15 14 13 13 13 12 11 11 10 10 9 9 9 9 8 7 7 7 6 6 5 4 2 1 1 1 2 2 3 4 5 6 7 8 8 8 9 8 8 8 9 8 7 6 5 5 5 5
16 16 15 15 15 14 13 13 12 11 11 10 9 9 9 8 8 7 7 7 7 6 4 3 2 1 1 1 2 3 4 5 6 7 8 8 9 9 9 8 8 9 8 7 6 6 5 5 5
17 17 16 15 15 14 14 13 13 13 12 11 10 10 10 9 9 8 8 8 7 6 5 3 2 1 1 1 2 3 3 4 6 7 8 8 8 9 9 9 9 9 8 7 6 6 5 5 4
18 17 17 16 15 14 14 13 12 13 13 12 10 10 10 10 9 9 7 7 6 5 4 3 2 2 1 1 3 3 3 4 5 7 7 8 9 9 9 9 9 9 8 8 7 6 5 5 5
19 17 16 17 15 15 14 14 13 12 13 13 11 11 10 10 9 9 9 7 6 5 4 4 3 2 1 2 3 3 4 5 6 6 7 8 9 9 9 9 9 9 8 8 7 7 6 5 5
18 17 16 16 15 15 14 14 13 13 13 13 13 12 12 11 9 9 9 7 6 6 5 4 3 2 2 2 3 3 4 5 6 6 7 8 9 9 9 9 10 9 9 8 7 7 6 5 4
17 17 16 14 14 14 14 15 14 13 13 14 13 13 13 12 10 10 9 8 7 6 5 4 3 3 3 3 3 3 4 5 5 6 7 8 8 9 9 9 10 9 9 8 8 7 6 5 5
17 17 17 16 15 15 14 14 14 13 13 13 13 12 12 11 10 9 9 8 7 6 6 5 4 4 3 2 3 3 3 4 5 6 6 7 8 9 9 9 9 9 9 9 8 7 7 6 5
15 16 17 17 16 16 15 14 14 13 13 14 13 13 12 11 10 10 9 8 8 7 6 5 4 3 3 2 2 3 3 4 5 5 6 7 8 8 9 9 10 10 9 8 8 7 7 7 7
16 16 17 16 16 16 16 14 14 13 14 14 14 13 12 10 11 10 10 9 8 7 6 6 4 3 3 3 2 3 3 4 4 5 6 6 8 8 9 9 10 10 10 9 8 7 7 7 7
15 16 16 15 15 15 15 15 15 14 13 13 14 13 12 11 11 11 10 10 9 7 6 6 4 4 4 3 3 3 3 3 4 4 5 6 7 8 8 9 9 10 10 9 8 8 7 7 7
13 14 15 15 14 15 15 15 14 14 14 13 13 13 12 12 11 11 11 10 9 8 7 6 5 4 4 4 3 3 3 4 4 4 5 6 7 7 8 8 9 9 9 9 8 8 8 8 8
13 13 13 14 14 14 15 15 14 14 14 14 13 13 13 12 12 11 11 11 10 8 7 6 5 4 4 4 4 4 4 4 4 5 5 6 6 7 8 8 8 8 8 9 9 8 8 8 8
13 12 12 14 13 13 14 14 14 15 15 15 15 14 13 13 12 11 11 11 10 9 8 7 5 4 5 4 4 4 4 5 5 5 5 6 7 7 7 8 8 8 8 8 8 8 8 8 8
13 12 11 12 12 12 13 13 13 14 14 14 14 13 12 12 12 12 12 11 10 9 8 7 6 5 5 5 4 4 5 5 5 5 6 6 7 7 7 8 8 8 8 8 8 8 8 8 8
11 11 11 11 11 11 11 11 13 14 14 13 13 13 12 12 12 12 12 11 11 10 9 8 7 6 6 5 5 5 6 6 6 6 7 7 7 8 8 8 8 8 8 7 8 8 8 9 9
11 11 10 10 10 10 10 10 11 12 13 12 12 12 12 12 12 12 12 12 11 10 9 8 8 7 6 6 7 7 7 7 7 7 7 8 8 8 8 8 8 8 8 8 8 8 8 9 9
10 10 9 9 9 9 9 9 10 10 10 11 11 12 12 12 12 13 13 12 12 10 9 9 8 8 8 8 8 8 8 8 8 8 8 8 8 9 9 9 9 9 8 8 8 8 9 10 10
9 8 7 7 7 7 7 10 10 9 9 10 11 12 12 12 13 13 12 12 12 11 10 9 9 9 9 9 9 9 9 8 8 8 9 9 9 9 9 9 9 9 9 9 9 9 10 10 11
7 7 7 6 5 6 8 11 10 9 9 10 11 12 12 13 13 13 13 12 12 11 11 10 10 9 9 10 10 10 10 9 10 10 10 10 10 11 11 11 10 10 10 10 10 10 11 11 11
7 7 7 7 6 7 8 9 10 9 9 9 10 11 12 13 14 14 13 13 13 12 11 11 11 11 11 11 11 10 11 11 11 12 12 12 12 12 12 12 11 11 11 11 11 11 12 12 12
7 7 8 8 8 7 7 8 9 9 9 9 10 11 12 12 13 13 13 13 12 12 12 12 12 12 12 11 11 11 11 11 11 13 13 13 14 13 13 13 12 12 12 12 12 12 13 13 13
7 7 8 9 9 8 8 9 10 8 9 9 10 11 12 13 13 12 12 12 12 12 12 11 12 12 12 12 12 12 12 13 13 13 14 14 15 15 14 14 14 13 13 13 14 14 15 15 15
7 8 9 9 9 9 9 9 10 9 9 10 10 11 12 13 12 12 12 12 12 12 12 12 12 11 11 12 12 13 13 14 14 15 15 16 16 16 15 15 15 15 15 15 16 16 16 16 16

GEFSSGP_500_meanwind_186.txt.gz
Wind_Speed
10 9 10 11 10 9 8 7 7 6 5 6 6 5 5 5 5 5 5 5 5 4 4 3 3 3 3 3 4 4 5 5 5 5 5 5 4 4 5 5 5 5 4 4 4 4 4 4 4
10 10 10 11 10 9 8 7 7 6 6 6 6 5 5 5 5 5 5 4 4 3 3 3 3 2 3 3 4 4 4 5 5 5 5 5 5 5 5 6 6 6 5 5 5 5 5 5 5
11 11 10 10 12 10 8 7 7 6 6 7 7 7 6 6 5 6 5 4 3 3 3 3 2 2 2 3 4 4 4 5 5 5 6 5 5 6 6 6 7 6 6 5 5 5 5 5 6
13 12 12 11 12 11 9 8 7 7 6 6 6 6 6 6 6 6 5 5 4 3 3 3 2 2 2 3 4 4 4 5 5 5 6 6 6 6 6 6 6 6 6 6 5 5 5 5 5
14 13 13 13 12 11 10 8 7 7 6 6 6 6 6 6 7 6 6 5 4 3 3 2 1 1 1 2 3 4 4 5 5 5 6 6 6 6 6 6 7 7 6 6 5 4 4 5 5
15 14 13 13 13 11 10 8 8 7 7 7 7 7 7 6 7 6 5 5 4 4 3 2 1 1 1 2 3 4 4 5 5 5 6 6 6 7 7 7 7 7 6 6 5 4 4 4 4
16 15 15 14 13 12 11 9 9 9 9 8 8 8 7 7 7 6 5 4 4 4 3 2 1 0 1 2 3 3 4 4 5 5 6 6 6 7 7 7 8 7 7 6 5 4 4 4 4
17 16 15 13 12 12 11 11 9 8 9 9 8 8 7 7 6 6 5 4 4 4 3 2 1 1 0 1 2 3 3 4 5 5 6 6 7 7 7 8 8 8 7 6 6 5 4 4 4
17 17 15 15 13 12 11 10 10 9 8 9 8 8 7 7 6 6 5 5 5 4 3 2 2 1 0 1 2 3 3 4 4 5 5 6 7 7 7 7 7 7 7 7 6 5 4 4 4
17 17 16 15 13 12 10 9 9 10 9 9 8 8 8 7 7 6 5 5 5 4 3 3 2 1 1 1 1 2 3 3 4 5 5 6 6 7 7 7 7 8 7 7 6 5 4 4 4
18 17 16 15 13 12 11 10 10 10 11 10 9 9 8 8 7 6 6 5 5 4 3 2 2 2 1 1 1 2 3 3 4 5 5 6 6 7 7 7 7 7 7 7 6 6 5 4 3
17 17 16 15 13 11 12 12 11 10 10 10 10 10 10 9 8 7 7 6 6 4 4 4 3 2 2 2 2 2 3 3 4 4 5 5 6 6 7 7 7 7 7 7 7 6 5 4 3
18 17 15 16 13 11 11 12 11 11 10 11 11 11 10 10 9 8 7 7 6 5 5 5 4 3 3 3 2 2 2 3 3 3 4 5 6 6 7 7 8 8 7 7 7 6 5 5 4
17 17 15 14 13 12 12 12 12 11 11 12 11 11 11 10 9 9 9 8 6 6 6 5 4 3 3 2 2 1 2 2 2 3 4 4 5 6 7 8 8 8 7 7 6 5 5 4 4
16 15 15 14 13 13 13 12 12 11 12 12 12 11 11 10 10 9 9 8 6 7 6 6 5 3 3 3 2 1 1 1 2 2 3 3 4 5 6 8 8 8 7 6 6 5 5 5 4
15 15 14 14 12 12 12 12 12 12 12 12 12 11 10 10 9 9 9 8 7 7 7 6 5 4 4 4 3 2 2 2 2 2 2 3 4 5 6 7 7 7 7 6 6 5 5 5 5
14 14 14 13 13 12 12 11 12 12 12 11 11 12 11 10 10 9 9 8 8 7 7 7 6 5 4 4 4 3 3 2 2 2 2 3 4 4 5 6 6 6 6 6 6 5 5 5 4
13 13 13 13 13 12 12 11 11 12 12 12 12 12 12 10 10 9 9 9 9 8 8 8 6 5 5 5 5 4 4 4 3 3 3 3 3 4 5 5 6 6 6 6 6 6 5 4 4
13 13 13 12 12 12 12 12 11 12 12 12 12 12 12 11 11 10 10 10 10 9 8 8 7 7 6 5 5 5 4 4 4 3 3 3 4 4 5 5 6 6 6 6 6 6 5 5 5
12 12 12 12 12 12 12 12 12 12 12 12 13 13 13 12 11 11 11 10 11 10 9 9 8 7 7 6 6 6 5 5 5 4 4 4 4 5 5 6 6 6 6 6 6 5 5 5 5
10 11 11 11 11 12 12 13 12 12 12 12 12 13 13 12 12 11 11 11 11 11 10 9 9 8 8 7 6 6 5 5 5 5 5 5 5 6 6 6 6 6 6 6 6 6 6 5 5
9 11 12 11 10 11 12 12 12 12 12 12 12 12 12 12 13 12 11 11 12 12 11 10 10 10 9 8 7 6 6 5 5 5 6 6 6 6 7 7 7 7 7 7 6 6 7 7 7
9 10 10 10 10 10 10 11 11 12 12 13 12 12 12 13 13 12 11 12 12 12 12 11 11 11 10 9 8 7 7 6 5 6 6 6 6 7 7 7 7 7 7 8 8 8 8 8 8
9 10 9 9 9 10 10 10 9 10 11 12 12 12 13 13 13 12 12 12 12 12 12 11 11 10 10 10 9 9 8 7 7 7 7 7 8 8 7 8 8 8 8 8 8 8 9 8 9
9 9 10 10 10 8 8 9 7 9 11 12 12 11 12 13 13 12 12 12 12 11 12 11 11 11 11 10 10 10 9 9 9 8 8 8 9 9 9 9 9 9 9 9 9 9 9 9 10
8 9 9 9 9 8 8 8 7 8 10 11 10 10 11 13 13 12 12 12 12 12 12 12 11 11 11 11 11 11 10 10 10 10 9 9 10 11 11 11 10 10 10 9 9 10 10 11 11
8 8 8 8 8 8 8 8 8 8 9 9 10 10 10 11 12 12 11 11 11 11 12 12 12 12 12 12 12 12 12 11 11 11 11 11 11 11 11 11 11 11 11 10 11 11 11 12 12
7 8 8 7 7 7 7 8 7 8 8 8 9 10 10 11 11 11 11 11 11 11 12 12 12 12 12 12 12 12 12 12 12 12 11 11 12 12 12 13 13 13 13 12 12 13 13 13 14
6 7 8 8 7 8 8 8 8 8 8 8 8 9 9 10 11 11 11 11 12 12 12 12 13 13 12 12 12 13 13 13 13 13 13 12 12 13 13 14 14 14 14 14 14 14 15 15 15
7 7 7 8 8 9 9 8 9 8 8 8 8 8 8 10 11 12 12 12 12 12 12 12 13 13 13 13 13 13 14 14 14 14 15 14 14 15 15 15 16 16 16 15 16 16 16 16 16

GEFSSGP_500_meanwind_192.txt.gz
Wind_Speed
10 9 9 8 8 7 6 6 5 5 5 5 5 5 5 6 6 5 5 4 3 3 3 3 3 3 4 6 6 7 7 8 8 8 7 7 8 8 8 8 8 7 7 6 5 4 4 3 3
10 10 9 9 9 8 7 6 6 5 5 6 6 5 5 6 6 6 5 4 3 2 2 2 2 3 3 5 6 6 6 7 7 7 8 8 8 8 8 8 8 8 7 7 5 5 4 4 4
10 10 10 9 9 8 7 6 7 4 5 5 5 5 6 7 6 6 5 4 3 2 1 1 1 2 2 4 5 6 6 6 7 7 8 8 8 8 8 8 9 8 8 7 6 5 4 4 4
11 11 11 10 9 8 8 7 6 6 5 5 5 5 6 7 6 5 5 4 3 2 2 1 1 1 2 3 5 5 6 6 6 7 7 8 8 8 8 8 8 8 8 7 6 5 4 4 4
13 12 11 11 10 10 8 8 8 7 6 5 6 6 6 5 5 6 5 4 3 3 2 1 0 1 1 2 4 4 5 5 6 6 7 7 7 8 8 8 8 8 8 7 6 5 5 4 4
14 13 12 12 11 9 9 9 9 8 7 6 6 6 6 6 5 5 5 4 3 3 3 1 0 0 0 2 3 4 4 5 5 6 6 7 7 8 8 8 8 8 8 8 7 6 5 4 4
15 14 13 12 11 10 9 9 8 8 8 7 7 6 6 6 6 5 5 5 4 4 3 2 0 1 1 1 2 3 4 4 5 5 6 7 7 8 8 8 8 8 8 8 7 6 5 4 4
15 15 13 13 12 11 10 9 8 8 8 8 7 7 7 6 6 6 5 4 4 4 3 3 1 0 1 1 2 3 3 4 5 5 6 6 7 8 8 8 8 8 8 8 7 6 5 4 4
15 15 14 13 13 12 11 10 9 8 9 8 8 7 7 7 7 6 5 5 5 4 3 3 2 1 1 1 2 3 3 4 4 5 6 6 7 8 8 8 8 8 8 8 7 6 5 4 4
15 14 14 13 12 12 12 11 9 9 9 10 9 8 8 7 7 7 6 6 6 5 4 4 3 2 1 2 2 3 3 3 4 5 5 6 7 8 8 8 8 8 8 7 7 6 5 4 4
15 15 14 13 13 12 12 12 11 10 10 11 10 9 9 8 8 8 7 6 6 6 5 4 3 2 2 3 3 3 3 3 4 5 5 6 6 7 8 8 8 8 7 7 6 6 5 4 4
15 14 14 14 13 13 13 13 12 11 11 11 11 10 10 10 9 9 8 7 6 6 5 4 4 3 3 3 3 3 3 3 4 4 5 6 6 6 7 8 8 8 8 7 7 6 5 4 4
15 14 14 13 13 13 13 12 11 11 12 12 12 11 11 11 10 9 8 8 7 6 6 5 4 3 3 3 3 3 3 3 3 3 4 5 6 6 7 7 7 8 8 7 7 6 5 5 4
14 13 13 13 13 14 13 12 11 10 11 11 12 12 11 11 10 10 9 9 8 7 7 6 5 4 4 4 4 3 3 3 3 3 4 5 5 6 7 7 8 8 8 7 7 6 5 4 4
14 14 14 14 13 14 13 13 12 11 10 12 12 12 12 12 11 11 10 10 9 9 8 7 6 5 5 5 4 4 3 3 3 3 3 4 5 5 6 7 8 8 7 7 7 6 5 5 4
13 14 14 14 15 14 13 12 12 12 11 11 12 13 13 12 12 11 11 11 10 10 9 8 7 6 6 5 5 5 4 4 4 3 3 4 5 5 6 7 7 7 7 7 7 6 5 5 5
12 12 13 14 14 14 14 12 12 12 12 12 12 13 13 13 11 11 11 11 11 10 10 9 8 7 6 6 6 5 5 4 4 4 4 4 5 5 6 6 7 7 7 7 7 6 6 5 5
12 12 12 13 13 12 13 13 13 13 14 13 13 14 14 13 12 12 11 11 11 10 10 10 8 8 8 7 6 6 5 5 5 5 5 4 5 5 6 6 7 7 7 7 7 6 6 6 6
12 12 12 12 12 13 14 14 13 13 14 14 14 14 15 14 13 12 12 11 11 11 11 10 9 8 8 8 7 7 6 6 6 6 6 6 6 6 6 6 7 7 7 7 7 6 6 6 6
11 12 12 13 12 12 13 14 14 13 13 14 14 15 15 15 14 13 12 12 12 12 12 11 10 9 9 8 7 7 7 7 7 6 6 6 6 7 7 7 7 8 7 7 7 6 6 6 7
12 11 11 12 12 12 13 13 14 14 14 14 14 15 15 15 16 15 15 14 13 13 12 12 11 10 9 9 8 8 7 7 7 6 6 7 7 7 7 7 7 7 7 7 7 7 7 7 7
11 11 11 12 11 11 12 12 13 13 14 14 14 14 15 15 16 15 15 14 14 13 13 12 11 10 10 9 9 9 8 8 7 7 7 7 7 7 7 7 7 7 7 7 7 7 7 8 8
10 10 10 11 11 12 12 13 12 13 14 14 14 14 15 15 15 15 15 14 14 13 12 12 12 11 11 10 10 9 9 9 8 8 8 8 7 7 7 8 8 8 7 7 7 8 9 9 9
10 10 10 10 11 12 12 13 12 12 13 14 13 14 15 15 15 15 14 13 13 13 13 12 12 11 11 11 10 10 9 9 9 9 8 8 8 8 8 8 8 8 9 9 9 9 10 10 10
9 10 11 11 12 12 12 12 12 13 12 13 13 14 14 15 14 14 14 14 14 13 13 12 12 12 11 11 10 10 10 10 10 10 9 9 9 9 10 9 10 10 10 10 10 10 10 10 11
10 10 11 11 11 11 11 11 10 11 11 12 13 13 13 14 14 14 14 14 14 13 13 13 12 12 12 11 11 11 10 10 10 10 10 10 10 11 11 11 11 12 11 11 11 11 11 11 12
9 9 9 10 10 10 10 9 9 10 11 10 11 12 12 13 13 13 14 14 14 13 13 13 12 12 11 11 11 11 11 11 11 11 11 12 12 12 12 13 13 13 13 13 12 13 13 13 13
9 10 9 10 10 9 8 8 9 10 11 11 11 11 12 13 13 13 13 13 13 13 12 12 11 11 12 11 11 12 11 11 12 12 13 13 13 13 14 14 14 14 14 14 14 14 15 15 15
9 9 9 9 9 9 7 7 8 9 10 11 11 11 12 12 12 12 13 13 13 13 13 12 12 12 12 12 12 12 12 12 13 13 14 14 14 14 15 15 15 15 15 16 16 16 16 17 17
9 9 9 10 9 8 7 6 7 8 9 9 10 11 12 13 13 13 13 13 14 14 13 13 13 13 13 13 13 13 13 14 14 14 15 15 15 15 16 16 16 16 16 17 17 17 17 18 18

GEFSSGP_500_meanwind_198.txt.gz
Wind_Speed
9 8 7 6 5 5 5 5 6 5 7 7 7 7 6 7 8 7 7 6 6 5 4 3 3 3 3 4 5 5 6 6 6 6 5 5 5 5 5 5 4 4 3 2 2 1 1 1 2
10 9 8 7 6 6 6 6 6 6 7 7 7 6 6 7 8 7 7 6 6 5 4 3 3 2 3 4 4 5 5 5 5 5 5 5 5 5 5 4 4 4 3 2 2 2 2 2 2
11 10 8 8 7 7 6 6 7 7 7 7 6 6 6 7 8 8 7 7 6 5 4 3 2 1 2 3 4 4 4 4 5 5 5 5 5 6 5 5 4 4 3 3 3 2 2 2 2
10 10 9 8 8 8 7 7 7 7 7 7 6 6 6 7 7 8 8 7 6 5 4 3 1 1 1 1 3 3 3 4 4 4 5 5 5 6 6 5 5 4 4 4 3 2 2 2 3
11 10 10 9 9 9 8 7 7 7 6 7 7 7 6 7 7 8 8 7 6 5 4 3 2 1 1 0 1 2 3 3 4 4 4 5 5 6 6 6 6 5 4 4 4 2 2 2 3
11 11 10 10 10 9 8 8 7 7 7 7 7 7 8 8 8 8 8 7 6 5 4 3 3 2 1 1 0 1 2 2 3 3 4 4 5 6 6 6 6 5 5 5 4 3 2 2 2
12 12 12 11 11 10 10 9 8 8 8 8 8 8 9 9 8 8 9 8 7 6 5 4 4 2 2 1 1 1 1 2 2 3 4 4 5 5 6 6 6 5 5 5 4 4 3 3 2
14 13 12 12 12 11 11 11 10 9 10 10 10 9 9 9 8 8 7 7 7 6 5 5 4 3 2 1 1 1 1 1 2 2 3 4 5 5 6 6 6 5 5 5 5 4 3 2 2
13 14 13 13 13 12 12 12 12 10 10 11 11 11 10 10 9 8 7 8 7 6 6 6 5 4 2 2 2 2 1 1 2 2 3 4 5 6 5 5 6 6 6 6 5 4 3 2 2
13 13 14 13 13 14 13 13 12 12 11 11 11 11 11 10 10 9 8 7 6 6 7 6 6 5 4 3 3 2 2 2 2 3 3 4 5 5 5 5 6 5 5 5 4 4 3 3 2
14 14 14 13 13 13 14 14 13 13 12 12 11 11 11 10 10 10 9 8 7 7 7 7 6 6 5 4 3 3 2 3 3 3 3 4 4 4 5 5 6 6 5 5 4 3 2 3 2
14 13 13 13 12 13 14 14 14 13 14 14 13 12 12 11 11 11 10 9 8 8 8 8 7 6 6 4 3 2 2 3 3 3 3 4 4 4 5 5 6 6 6 5 5 4 3 3 3
14 13 13 13 13 13 13 13 14 13 14 14 14 13 13 12 11 10 10 9 9 9 8 8 7 7 6 5 3 3 3 3 3 3 3 4 4 4 5 5 6 6 5 5 4 4 3 3 3
13 13 13 13 13 13 13 13 13 14 14 14 13 13 12 12 12 11 11 10 10 10 9 9 8 7 6 5 4 4 4 4 3 3 3 3 4 4 4 5 6 5 5 5 4 4 3 3 3
12 12 13 14 13 13 13 14 14 14 13 13 13 13 13 12 12 12 11 11 10 10 10 10 9 8 7 6 5 5 5 5 4 4 3 3 4 4 4 5 6 6 5 5 4 4 4 3 3
12 12 13 13 13 13 13 13 14 14 14 13 13 13 12 12 13 13 12 12 11 11 11 11 10 9 8 7 6 6 6 5 5 4 4 4 4 4 4 5 6 6 6 5 5 5 4 4 4
11 11 11 12 12 13 12 12 13 12 12 13 13 13 13 13 13 13 13 13 12 12 12 11 11 10 9 8 7 7 6 6 5 5 5 5 5 5 5 5 5 6 6 5 5 5 4 4 5
11 11 11 11 12 12 12 13 13 14 13 12 13 13 13 13 13 13 13 13 13 13 13 12 11 10 9 9 8 7 7 7 6 6 5 5 5 5 5 5 5 5 6 6 5 4 4 5 5
11 11 11 11 11 12 13 13 14 14 14 14 13 14 14 15 14 14 14 14 14 13 12 11 11 11 10 9 9 8 8 8 8 7 6 5 5 5 5 6 5 5 6 6 5 5 5 5 5
10 10 10 10 11 11 11 12 13 14 14 14 14 14 15 15 15 14 14 14 14 14 13 12 12 12 11 10 9 8 8 8 8 7 7 6 6 6 6 6 6 6 6 6 6 6 6 6 6
9 10 11 11 11 11 11 12 13 13 14 14 14 14 15 15 15 14 14 14 14 14 13 13 12 12 11 10 9 9 9 9 8 8 7 7 7 7 7 6 6 6 6 6 6 7 7 7 7
9 10 11 11 11 11 11 12 13 13 13 13 14 15 15 15 15 15 15 15 14 14 14 13 12 12 12 11 10 10 10 9 9 8 8 8 7 7 7 7 7 7 7 7 7 8 8 8 8
10 10 10 10 11 11 11 12 12 12 13 13 15 15 15 15 15 15 15 15 15 14 14 14 13 13 12 11 11 10 10 10 10 9 9 8 8 8 8 8 8 8 8 8 8 8 8 8 9
10 9 9 9 10 11 11 11 11 12 12 13 13 14 14 15 15 16 16 15 15 14 14 13 13 12 12 11 11 11 10 10 10 10 9 9 9 9 9 9 9 8 9 9 9 9 9 9 10
8 8 8 9 9 9 10 11 11 12 12 12 12 13 14 14 15 16 16 15 14 14 13 13 13 12 11 11 11 11 11 11 11 10 10 10 9 10 10 10 10 10 10 10 10 10 10 11 11
8 9 9 10 9 9 9 10 10 11 11 11 12 13 14 14 14 14 14 15 14 13 13 12 12 12 12 12 11 11 11 11 11 11 10 10 10 11 11 11 11 11 11 11 11 11 11 12 12
8 9 10 11 10 9 9 9 9 10 10 10 10 12 12 13 13 13 13 13 13 13 13 12 12 12 12 12 12 12 12 12 11 11 11 11 12 12 11 11 11 11 11 12 12 12 13 13 13
8 8 9 11 11 10 8 6 7 8 8 9 9 10 11 11 12 13 13 13 13 13 13 13 13 13 13 12 12 12 12 12 11 11 12 12 12 12 12 12 12 12 12 12 13 13 13 14 14
8 8 9 10 11 10 9 8 7 8 9 9 9 10 11 11 12 13 13 13 13 13 13 13 13 13 13 12 13 13 13 12 12 12 12 12 12 12 13 13 12 13 13 14 14 14 15 15 15
9 9 8 9 9 9 9 8 8 8 9 9 10 10 11 12 13 13 13 13 13 13 13 13 14 14 13 13 14 14 13 13 13 13 13 13 13 13 13 14 14 14 14 14 14 15 15 15 15

GEFSSGP_500_meanwind_204.txt.gz
Wind_Speed
4 4 4 5 4 5 5 5 5 6 6 6 6 5 6 5 5 5 5 4 3 2 2 1 1 1 2 2 3 3 3 4 4 5 5 5 4 4 4 4 4 3 2 2 2 1 1 2 2
6 6 5 5 5 4 4 5 5 6 7 7 6 6 6 6 6 6 5 4 3 2 2 1 0 1 1 1 2 3 3 4 4 5 5 5 5 5 4 4 4 4 3 2 2 2 2 2 2
8 7 6 6 6 4 5 4 5 6 6 7 7 6 6 6 7 7 6 5 4 3 3 2 1 0 1 2 2 3 3 4 4 4 4 5 5 5 5 5 4 4 4 3 3 3 3 3 3
9 9 8 7 7 6 5 5 5 6 7 7 7 6 6 6 6 6 6 5 5 4 3 2 2 1 2 2 2 2 3 4 4 4 4 5 5 5 5 5 5 5 4 4 4 3 3 3 3
10 10 8 8 8 7 6 6 6 6 7 7 6 6 6 6 6 6 5 5 5 4 3 3 2 2 2 2 2 3 3 4 4 4 4 5 5 5 5 5 5 5 5 5 5 4 3 3 3
10 10 9 9 10 9 8 7 7 7 7 8 8 7 7 6 6 6 6 6 6 5 4 4 4 3 2 2 3 3 3 4 4 4 4 5 5 6 6 6 6 6 5 5 4 4 4 3 3
10 10 10 10 11 10 9 9 9 8 8 8 8 8 8 7 7 7 7 7 7 6 5 4 4 3 3 3 3 3 3 4 4 4 4 5 5 6 6 6 6 6 5 5 4 4 3 3 3
11 11 11 12 11 11 11 10 10 9 9 9 9 10 9 9 9 9 8 8 8 7 7 6 5 4 4 4 3 4 4 4 4 4 4 5 5 6 6 6 6 6 5 5 5 4 4 3 3
12 12 12 12 12 12 12 12 11 11 10 10 10 11 10 10 9 9 8 8 8 8 8 7 5 4 4 4 4 4 4 4 4 4 4 5 6 6 6 6 6 6 6 5 5 4 4 3 3
13 13 13 13 13 12 13 12 12 11 11 11 11 11 11 11 10 10 9 8 8 8 8 7 6 5 5 5 4 4 4 4 4 5 5 5 6 7 7 7 6 6 6 5 5 4 4 4 3
14 13 14 14 13 13 13 13 13 12 12 12 12 12 12 12 12 11 9 8 7 7 8 7 7 6 6 5 5 5 5 4 4 5 6 6 6 7 7 7 7 7 6 5 5 4 4 3 3
15 14 14 14 14 13 13 14 14 14 14 14 13 12 12 12 11 10 9 8 8 7 8 8 7 7 6 6 5 5 5 5 5 5 6 6 6 7 7 7 7 7 6 6 5 5 4 4 4
14 14 14 13 13 14 14 14 15 15 14 14 14 13 12 11 10 10 9 8 7 7 7 8 7 7 6 6 5 5 5 5 5 5 6 6 7 7 7 7 7 6 6 5 5 5 5 5 4
13 14 14 13 13 13 14 15 15 15 15 14 14 13 13 12 11 10 10 9 8 7 7 7 7 7 7 7 6 6 6 6 6 6 6 6 6 7 7 7 7 6 6 6 6 5 6 5 5
12 12 13 13 13 13 14 14 14 14 14 15 14 14 13 12 11 11 10 10 10 9 9 9 8 9 8 8 7 6 6 6 6 7 7 6 6 6 6 6 7 6 6 6 6 5 6 6 5
11 12 12 12 12 12 12 13 14 14 13 14 13 13 13 13 12 12 11 11 11 11 10 10 10 9 9 8 8 7 7 7 7 7 7 7 7 7 7 7 7 7 6 6 6 6 6 6 6
10 10 10 11 11 12 12 11 12 12 12 13 14 13 13 13 12 12 12 12 12 12 11 11 10 9 8 9 8 8 7 7 7 8 7 7 7 7 7 7 7 7 7 7 6 6 6 6 6
8 9 10 10 10 11 11 10 11 11 11 11 13 14 13 13 13 12 12 12 11 11 11 10 10 10 10 9 8 8 8 7 8 8 7 7 7 7 7 7 7 7 7 7 6 6 6 6 7
9 9 10 10 9 10 10 10 11 10 10 11 12 12 13 13 13 13 12 12 11 10 10 10 10 10 10 10 9 8 8 8 8 8 8 8 8 7 7 7 7 7 7 7 7 7 7 7 7
9 10 10 10 10 10 11 10 10 11 11 11 11 12 12 12 13 13 12 12 11 10 10 10 10 10 10 10 10 9 9 9 8 8 8 8 8 7 8 8 7 8 8 8 8 8 8 8 8
10 11 10 9 10 10 11 10 10 11 11 11 12 12 13 13 13 13 12 12 11 11 11 11 11 11 11 11 11 10 10 9 9 9 9 8 8 8 8 8 8 8 8 8 8 8 8 9 9
10 10 10 10 10 10 10 10 10 11 11 12 13 13 14 13 13 12 12 12 12 12 12 12 11 11 11 12 11 11 10 9 9 9 9 9 8 8 8 9 9 9 9 9 9 9 9 9 9
9 9 9 10 10 9 9 10 10 11 12 12 12 13 13 13 13 12 13 13 13 13 13 12 12 12 11 11 10 10 10 9 9 9 9 9 9 9 9 10 10 10 10 10 10 10 10 10 10
8 9 10 10 11 11 9 12 12 12 13 12 12 12 12 12 12 12 13 13 13 13 13 13 13 12 11 11 10 10 10 9 9 9 10 10 10 10 10 11 11 11 11 11 11 11 11 11 11
8 9 9 9 10 10 10 13 13 12 12 13 13 13 12 13 13 12 13 13 14 13 13 13 12 12 12 11 11 10 11 10 10 10 10 10 11 11 11 11 11 11 11 11 12 12 12 12 12
9 9 9 8 8 9 10 12 13 12 12 12 13 13 13 13 13 13 13 13 13 12 12 13 13 12 12 12 11 11 11 11 10 11 11 11 11 11 11 12 12 12 12 12 12 12 13 13 14
9 9 8 8 8 10 9 10 12 12 11 12 12 12 12 12 12 12 13 13 13 13 12 13 12 13 13 13 12 11 11 11 11 11 12 12 12 12 12 12 13 13 13 12 13 13 14 14 14
9 9 9 9 9 10 9 9 10 12 12 11 11 11 11 11 11 12 12 12 13 13 14 14 13 13 13 13 12 12 12 12 12 12 12 13 13 13 13 13 13 13 13 13 14 14 14 15 15
10 10 10 9 9 10 10 8 9 10 11 11 11 11 11 11 11 11 11 12 12 13 13 13 13 13 13 13 12 12 12 12 13 13 13 14 14 14 14 14 14 14 14 14 14 15 15 15 15
11 10 10 10 10 10 12 11 11 11 12 12 11 11 11 11 11 12 12 13 13 13 13 13 13 13 13 12 12 12 13 13 14 14 14 14 14 14 14 15 15 15 15 15 15 16 16 17 17

GEFSSGP_500_meanwind_210.txt.gz
Wind_Speed
4 4 5 5 5 6 6 7 7 7 6 4 4 3 4 3 2 3 3 2 2 2 1 1 0 1 1 1 1 1 1 1 2 3 3 3 3 3 3 2 3 3 2 1 1 1 1 1 2
4 5 5 6 6 6 6 7 7 7 6 5 5 4 4 3 3 3 3 2 2 2 1 0 0 0 1 1 1 1 2 1 2 3 3 3 3 2 2 2 2 2 2 2 2 2 2 2 2
6 6 6 7 7 6 6 6 7 7 7 6 5 4 4 4 4 4 3 3 2 2 1 1 1 0 0 1 1 2 2 2 2 2 3 3 3 2 2 2 2 2 2 2 2 3 3 3 3
7 7 8 8 7 6 5 6 6 6 7 7 6 5 4 5 5 4 3 3 3 2 2 2 1 1 0 1 2 2 2 2 2 2 3 3 3 3 3 2 3 3 3 3 3 3 3 3 3
8 8 8 8 8 7 7 6 6 6 6 7 6 5 5 5 5 4 4 4 4 3 3 2 3 2 2 2 1 2 3 3 3 3 3 3 3 3 3 3 3 3 4 3 3 3 4 4 3
8 9 9 8 8 8 7 6 5 6 6 6 6 5 5 5 5 5 4 4 4 4 3 3 3 3 2 2 2 2 3 3 3 3 3 3 3 4 4 4 4 4 4 4 4 4 4 4 4
9 9 10 10 9 9 7 6 5 5 5 6 6 6 6 6 6 5 4 4 4 4 4 4 4 3 3 2 2 3 3 3 3 4 3 3 3 4 4 4 5 5 5 4 4 4 4 4 5
10 10 10 10 9 9 8 6 5 6 6 7 7 6 6 6 6 6 5 5 5 5 5 5 5 5 5 5 4 3 3 4 4 4 4 4 4 4 5 5 5 5 5 4 4 4 4 4 5
11 10 10 10 9 9 8 7 7 6 7 8 7 7 6 7 6 7 6 6 6 6 6 6 6 5 5 5 4 4 4 4 4 4 4 5 5 5 5 5 5 5 5 5 4 5 5 4 4
11 10 10 11 10 9 9 8 7 7 7 8 8 7 8 7 7 7 7 6 6 6 6 6 7 7 5 4 5 5 4 4 4 5 5 6 6 6 5 5 4 5 5 5 5 4 4 4 4
12 11 10 11 10 9 9 9 8 8 8 8 8 8 9 8 8 8 7 7 6 6 6 6 6 7 6 5 5 6 5 4 4 5 6 6 6 6 5 5 5 5 5 5 5 4 4 5 4
12 12 10 9 10 9 10 9 10 10 10 9 9 9 9 9 9 9 9 8 7 6 6 6 6 6 6 6 6 5 5 5 5 5 6 6 6 6 6 5 5 5 5 5 5 5 4 5 4
11 11 11 10 10 10 10 11 11 11 11 11 11 10 9 9 10 10 10 10 9 8 7 6 5 5 6 6 6 5 5 6 5 6 6 6 6 6 6 6 6 5 5 5 5 5 5 5 5
10 10 11 10 10 10 10 11 12 12 11 11 11 10 10 10 10 10 11 10 9 9 8 7 6 6 6 7 6 6 6 6 6 6 6 6 6 6 5 6 5 5 5 5 5 5 5 5 5
9 9 9 10 10 10 10 11 11 11 11 11 11 11 10 10 10 11 10 10 9 8 7 6 6 7 7 7 7 7 7 7 7 7 7 6 6 6 6 5 5 5 6 5 6 6 6 6 6
9 9 9 9 9 10 10 10 10 10 11 11 11 11 11 10 10 10 10 9 9 8 8 8 7 8 7 7 7 8 8 8 8 8 7 7 6 6 6 5 6 6 6 5 6 6 6 6 6
8 8 8 9 8 8 9 10 10 10 11 10 10 10 10 10 10 10 10 9 9 8 8 8 8 8 7 7 8 8 9 8 8 8 8 7 6 6 6 5 6 6 6 6 6 6 6 6 6
7 7 8 8 7 7 7 7 8 9 9 9 9 10 10 10 10 10 10 10 9 9 8 8 8 8 8 8 8 8 9 9 9 8 8 7 7 6 6 6 6 6 6 6 6 6 6 6 6
7 7 7 7 6 6 6 6 7 8 8 8 9 9 9 9 9 9 9 10 10 9 9 8 8 8 9 8 8 9 9 10 9 9 8 7 7 7 7 7 6 6 6 6 6 6 6 6 6
6 6 6 6 5 6 6 6 7 8 8 7 7 8 8 9 8 8 9 10 10 10 9 9 9 9 9 9 9 9 9 9 9 9 9 8 8 7 8 8 7 6 7 7 7 7 7 7 7
5 5 5 5 6 6 6 6 7 8 7 7 7 7 8 8 9 8 9 9 10 10 10 10 10 10 10 10 10 9 9 9 10 10 10 9 9 8 8 8 8 7 7 7 7 8 8 8 8
5 5 5 5 6 6 7 6 6 7 7 7 7 8 8 8 9 9 9 9 9 10 10 11 11 11 11 10 10 9 10 10 10 10 10 9 9 9 9 9 9 8 7 7 8 8 8 9 9
5 5 5 6 6 6 6 7 6 7 7 7 7 8 9 9 9 9 9 9 10 10 11 11 11 11 11 11 10 10 10 10 10 10 9 9 9 9 10 10 9 8 8 8 8 8 9 9 10
6 6 6 7 7 6 7 8 7 7 6 6 7 8 9 8 8 9 9 9 10 10 10 10 10 11 12 11 11 11 11 10 10 10 10 10 10 10 10 10 10 10 9 10 10 10 10 10 10
7 7 7 7 7 7 7 7 6 6 6 6 7 8 8 7 8 8 9 10 10 10 10 10 10 11 12 11 11 11 11 11 10 10 10 10 10 10 11 11 11 10 10 10 10 11 11 11 11
7 8 8 8 8 7 7 6 6 6 6 5 5 6 7 7 7 9 10 10 11 11 11 11 11 12 11 11 11 11 11 11 11 11 10 10 10 10 10 10 10 11 11 11 11 12 12 12 13
8 8 8 8 8 8 7 6 5 5 5 5 5 6 6 7 8 9 10 10 11 11 12 12 12 12 12 12 12 12 11 11 12 11 11 11 11 11 11 11 11 11 12 12 12 12 12 12 12
9 9 9 8 8 8 8 7 6 5 5 5 5 6 7 7 8 8 10 10 11 11 12 12 12 12 12 13 12 12 12 12 12 12 12 12 12 12 12 13 12 12 13 13 13 13 14 14 14
10 10 9 9 9 9 8 7 7 6 6 6 6 7 7 7 8 8 9 10 10 11 12 12 12 12 12 13 13 13 13 13 13 13 13 13 13 13 13 13 13 14 14 14 14 14 14 15 15
10 10 10 10 9 9 9 7 7 7 7 8 8 8 8 7 8 9 10 10 11 11 12 12 13 12 12 13 13 13 13 13 14 14 14 14 14 14 14 14 14 14 14 14 15 15 15 16 16

GEFSSGP_500_meanwind_216.txt.gz
Wind_Speed
3 4 5 5 5 5 6 6 7 6 5 5 4 3 2 3 2 1 1 1 1 1 1 2 2 2 3 3 4 5 5 5 5 5 5 5 5 5 5 5 5 4 3 3 3 2 2 1 2
4 5 5 5 6 5 6 6 7 7 7 6 5 3 3 2 2 1 1 1 0 1 1 2 2 2 2 3 3 4 5 5 5 5 5 5 4 4 4 5 5 4 3 3 3 2 3 2 2
6 6 6 5 6 6 6 6 7 7 7 6 6 4 3 3 2 1 1 0 0 1 2 2 2 2 2 2 3 3 4 4 4 4 4 5 4 4 4 4 4 4 4 4 3 3 3 3 3
6 7 7 7 7 7 7 7 7 7 7 7 6 5 4 3 3 2 1 1 1 2 2 2 2 3 2 2 3 3 3 4 4 4 4 4 4 4 4 4 4 4 4 4 4 5 4 4 3
7 7 7 7 7 7 7 8 7 7 7 6 5 4 4 4 3 3 2 1 2 2 3 3 3 3 3 3 3 3 3 3 4 4 4 4 3 4 4 4 4 5 5 5 5 5 5 4 4
8 8 8 8 8 8 7 7 7 7 8 7 6 5 5 5 4 3 3 3 3 3 3 3 3 3 4 4 4 4 4 4 4 4 4 4 4 4 4 4 5 5 6 6 6 5 5 5 4
9 9 8 9 9 8 8 7 6 6 7 7 6 5 5 5 5 4 4 4 4 4 4 4 4 4 4 5 5 5 5 4 4 4 4 4 5 5 5 5 5 6 6 6 6 5 5 5 5
10 10 9 10 9 9 8 8 6 6 6 6 6 6 6 5 5 6 5 5 5 5 5 5 6 5 5 5 5 6 5 4 4 5 5 5 5 5 5 5 6 6 6 6 6 6 5 5 5
11 10 10 10 10 9 9 9 7 6 6 6 7 7 6 6 6 6 7 6 6 6 6 6 6 6 6 6 6 6 5 4 5 5 6 5 5 6 6 6 6 6 6 6 6 6 6 5 5
11 11 11 11 11 11 10 9 8 7 6 6 6 7 7 6 7 7 7 7 7 6 6 6 6 6 7 7 6 7 6 5 6 6 6 6 6 6 6 6 6 6 7 6 6 6 5 5 5
11 12 12 12 11 10 10 9 9 7 7 7 7 7 7 7 8 8 8 8 8 7 7 7 7 6 7 7 8 7 6 6 6 6 6 6 6 6 5 6 6 6 7 7 6 6 5 5 5
11 11 11 11 11 11 10 9 9 9 8 8 8 8 8 9 9 9 9 9 9 9 8 8 8 7 7 7 7 6 6 7 7 6 6 6 6 6 5 6 6 6 7 6 6 6 6 5 6
10 10 9 10 10 10 10 10 10 9 10 10 9 9 10 10 10 10 10 10 10 9 9 8 9 8 8 6 6 7 6 6 6 7 7 6 6 6 6 6 6 6 6 6 6 7 7 6 6
10 9 9 9 10 10 10 10 10 10 10 11 10 10 10 10 10 10 10 10 10 10 10 10 10 9 8 7 6 6 7 7 7 7 7 7 7 7 7 7 6 6 6 6 7 7 7 7 7
9 9 9 10 10 10 11 11 11 10 10 11 11 10 10 10 10 10 11 11 11 11 11 11 10 9 8 8 7 7 8 7 8 8 8 8 8 7 7 7 7 7 7 7 7 7 7 7 8
8 8 8 9 10 10 11 12 11 11 10 10 11 10 10 10 10 11 11 12 11 11 10 10 10 9 8 8 8 8 8 8 9 9 8 8 8 8 7 7 7 7 6 6 7 7 6 7 7
8 8 8 9 9 10 11 11 11 10 10 10 11 11 11 10 11 11 12 12 11 10 10 10 9 9 9 9 8 8 8 9 9 9 9 8 8 8 8 7 7 7 7 7 7 6 6 7 7
7 7 7 8 9 9 9 10 10 10 10 10 11 11 12 12 11 11 11 11 10 10 10 9 9 9 9 9 9 9 9 9 9 9 9 9 8 8 7 7 8 8 7 7 7 7 7 7 7
6 6 6 7 7 7 8 8 9 9 10 10 11 11 10 10 10 11 10 10 10 10 10 10 10 9 9 9 9 9 9 9 9 9 9 9 9 8 7 7 8 7 8 7 7 7 7 7 8
5 6 6 6 7 7 7 7 8 9 9 10 11 11 11 10 10 11 10 10 10 10 10 9 9 9 10 10 10 9 9 9 9 9 9 9 9 9 8 8 8 8 8 8 8 8 8 8 8
7 6 6 6 7 7 7 7 8 7 8 9 9 10 11 10 10 10 10 10 10 10 10 10 10 10 10 10 10 9 9 9 9 9 9 9 9 9 8 8 8 8 9 9 9 9 8 8 8
7 7 7 7 7 7 7 6 7 8 8 8 9 9 10 10 10 10 10 10 10 11 11 11 10 10 10 10 10 10 9 9 9 9 9 9 9 9 9 9 9 9 9 9 9 9 9 9 9
7 7 7 7 7 7 7 7 6 7 7 8 8 8 10 10 10 10 10 10 10 11 11 11 10 10 10 10 10 10 9 9 10 10 10 10 9 9 9 9 9 10 10 10 10 10 10 10 10
8 8 8 8 7 7 7 8 7 7 8 8 8 9 10 10 11 10 10 10 11 11 11 11 11 11 10 10 10 10 10 10 10 10 10 10 10 10 9 9 10 10 10 10 11 11 11 11 11
8 8 8 8 8 7 8 9 7 7 8 8 9 9 10 11 11 11 10 11 11 11 11 12 12 11 11 11 11 11 11 11 11 11 11 11 11 11 10 11 11 10 11 11 11 12 12 12 12
7 7 8 9 9 7 8 8 7 8 8 9 9 10 10 11 11 11 11 11 11 11 12 12 12 12 12 12 12 11 11 11 11 11 11 11 11 11 11 12 12 12 13 13 13 13 13 13 13
8 8 9 9 9 8 8 8 7 9 9 9 9 9 9 10 10 11 11 12 12 12 12 12 12 12 12 12 12 11 11 11 12 12 12 12 12 12 12 12 13 13 13 13 13 13 13 13 13
9 9 9 9 9 9 9 8 8 9 10 10 10 9 9 9 10 11 11 11 11 12 12 12 13 13 13 13 12 12 12 12 12 12 12 13 13 13 13 13 13 13 13 13 13 13 13 14 14
10 10 10 10 10 10 10 9 9 10 10 9 9 10 10 9 10 11 11 11 12 12 12 12 13 13 13 13 13 12 12 12 12 12 12 13 13 13 13 13 13 13 13 13 14 14 14 14 15
11 10 10 11 11 11 11 10 9 9 9 9 9 9 9 10 10 10 11 12 12 12 12 13 13 13 13 13 13 13 12 12 12 12 12 13 13 13 14 14 14 14 14 14 15 15 16 16 16